Time,TemperatureF,DewpointF,PressureIn,WindDirection,WindDirectionDegrees,WindSpeedMPH,WindSpeedGustMPH,Humidity,HourlyPrecipIn,Conditions,Clouds,dailyrainin,SolarRadiationWatts/m^2,SoftwareType,DateUTC
2013-06-18 00:02:00,57.0,54.0,-100.00,ESE,103,1.0,2.0,90,0.00,,,0.02,0.000000,,2013-06-18 04:02:00,
2013-06-18 00:10:00,55.0,54.0,-100.00,ENE,68,1.0,2.0,95,0.00,,,0.02,0.000000,,2013-06-18 04:10:00,
2013-06-18 00:34:00,55.0,54.0,-100.00,ENE,68,1.0,2.0,95,0.00,,,0.02,0.000000,,2013-06-18 04:34:00,
2013-06-18 00:43:00,55.0,54.0,-100.00,ENE,68,1.0,2.0,95,0.00,,,0.02,0.000000,,2013-06-18 04:43:00,
2013-06-18 00:54:00,55.0,54.0,-100.00,ENE,68,1.0,2.0,95,0.00,,,0.02,0.000000,,2013-06-18 04:54:00,
2013-06-18 01:03:00,55.0,54.0,-100.00,ENE,68,1.0,2.0,95,0.00,,,0.02,0.000000,,2013-06-18 05:03:00,
2013-06-18 01:10:00,54.0,51.0,-100.00,ESE,116,1.0,5.0,91,0.00,,,0.02,0.000000,,2013-06-18 05:10:00,
2013-06-18 01:43:00,54.0,51.0,-100.00,ESE,116,1.0,5.0,91,0.00,,,0.02,0.000000,,2013-06-18 05:43:00,
2013-06-18 01:53:00,54.0,51.0,-100.00,ESE,116,1.0,5.0,91,0.00,,,0.02,0.000000,,2013-06-18 05:53:00,
2013-06-18 02:02:00,54.0,51.0,-100.00,ESE,116,1.0,5.0,91,0.00,,,0.02,0.000000,,2013-06-18 06:02:00,
2013-06-18 02:10:00,51.0,50.0,-100.00,East,87,1.0,2.0,95,0.00,,,0.02,0.000000,,2013-06-18 06:10:00,
2013-06-18 02:33:00,51.0,50.0,-100.00,East,87,1.0,2.0,95,0.00,,,0.02,0.000000,,2013-06-18 06:33:00,
2013-06-18 02:43:00,51.0,50.0,-100.00,East,87,1.0,2.0,95,0.00,,,0.02,0.000000,,2013-06-18 06:43:00,
2013-06-18 02:53:00,51.0,50.0,-100.00,East,87,1.0,2.0,95,0.00,,,0.02,0.000000,,2013-06-18 06:53:00,
2013-06-18 03:02:00,51.0,50.0,-100.00,East,87,1.0,2.0,95,0.00,,,0.02,0.000000,,2013-06-18 07:02:00,
2013-06-18 03:10:00,48.0,47.0,-100.00,NNE,23,0.0,2.0,97,0.00,,,0.02,0.000000,,2013-06-18 07:10:00,
2013-06-18 03:43:00,48.0,47.0,-100.00,NNE,23,0.0,2.0,97,0.00,,,0.02,0.000000,,2013-06-18 07:43:00,
2013-06-18 03:53:00,48.0,47.0,-100.00,NNE,23,0.0,2.0,97,0.00,,,0.02,0.000000,,2013-06-18 07:53:00,
2013-06-18 04:02:00,48.0,47.0,-100.00,NNE,23,0.0,2.0,97,0.00,,,0.02,0.000000,,2013-06-18 08:02:00,
2013-06-18 04:10:00,49.0,48.0,-100.00,East,93,1.0,2.0,98,0.00,,,0.02,0.000000,,2013-06-18 08:10:00,
2013-06-18 04:43:00,49.0,48.0,-100.00,East,93,1.0,2.0,98,0.00,,,0.02,0.000000,,2013-06-18 08:43:00,
2013-06-18 04:52:00,49.0,48.0,-100.00,East,93,1.0,2.0,98,0.00,,,0.02,0.000000,,2013-06-18 08:52:00,
2013-06-18 05:02:00,49.0,48.0,-100.00,East,93,1.0,2.0,98,0.00,,,0.02,0.000000,,2013-06-18 09:02:00,
2013-06-18 05:10:00,47.0,46.0,-100.00,ESE,103,1.0,2.0,97,0.00,,,0.02,1.000000,,2013-06-18 09:10:00,
2013-06-18 05:43:00,47.0,46.0,-100.00,ESE,103,1.0,2.0,97,0.00,,,0.02,1.000000,,2013-06-18 09:43:00,
2013-06-18 05:53:00,47.0,46.0,-100.00,ESE,103,1.0,2.0,97,0.00,,,0.02,1.000000,,2013-06-18 09:53:00,
2013-06-18 06:02:00,47.0,46.0,-100.00,ESE,103,1.0,2.0,97,0.00,,,0.02,1.000000,,2013-06-18 10:02:00,
2013-06-18 06:10:00,47.0,46.0,-100.00,SW,229,1.0,1.0,98,0.00,,,0.02,18.000000,,2013-06-18 10:10:00,
2013-06-18 06:43:00,47.0,46.0,-100.00,SW,229,1.0,1.0,98,0.00,,,0.02,18.000000,,2013-06-18 10:43:00,
2013-06-18 06:53:00,47.0,46.0,-100.00,SW,229,1.0,1.0,98,0.00,,,0.02,18.000000,,2013-06-18 10:53:00,
2013-06-18 07:02:00,47.0,46.0,-100.00,SW,229,1.0,1.0,98,0.00,,,0.02,18.000000,,2013-06-18 11:02:00,
2013-06-18 07:10:00,50.0,49.0,-100.00,WSW,251,1.0,2.0,98,0.00,,,0.02,34.000000,,2013-06-18 11:10:00,
2013-06-18 07:43:00,50.0,49.0,-100.00,WSW,251,1.0,2.0,98,0.00,,,0.02,34.000000,,2013-06-18 11:43:00,
2013-06-18 07:52:00,50.0,49.0,-100.00,WSW,251,1.0,2.0,98,0.00,,,0.02,34.000000,,2013-06-18 11:52:00,
2013-06-18 08:01:00,50.0,49.0,-100.00,WSW,251,1.0,2.0,98,0.00,,,0.02,34.000000,,2013-06-18 12:01:00,
2013-06-18 08:10:00,61.0,55.0,-100.00,West,273,2.0,6.0,82,0.00,,,0.02,286.000000,,2013-06-18 12:10:00,
2013-06-18 08:43:00,61.0,55.0,-100.00,West,273,2.0,6.0,82,0.00,,,0.02,286.000000,,2013-06-18 12:43:00,
2013-06-18 08:52:00,61.0,55.0,-100.00,West,273,2.0,6.0,82,0.00,,,0.02,286.000000,,2013-06-18 12:52:00,
2013-06-18 09:02:00,61.0,55.0,-100.00,West,273,2.0,6.0,82,0.00,,,0.02,286.000000,,2013-06-18 13:02:00,
2013-06-18 09:10:00,65.0,49.0,-100.00,West,280,2.0,6.0,56,0.00,,,0.02,291.000000,,2013-06-18 13:10:00,
2013-06-18 09:43:00,65.0,49.0,-100.00,West,280,2.0,6.0,56,0.00,,,0.02,291.000000,,2013-06-18 13:43:00,
2013-06-18 09:53:00,65.0,49.0,-100.00,West,280,2.0,6.0,56,0.00,,,0.02,291.000000,,2013-06-18 13:53:00,
2013-06-18 10:02:00,65.0,49.0,-100.00,West,280,2.0,6.0,56,0.00,,,0.02,291.000000,,2013-06-18 14:02:00,
2013-06-18 10:10:00,62.0,47.0,-100.00,WNW,284,2.0,4.0,59,0.00,,,0.02,261.000000,,2013-06-18 14:10:00,
2013-06-18 10:43:00,62.0,47.0,-100.00,WNW,284,2.0,4.0,59,0.00,,,0.02,261.000000,,2013-06-18 14:43:00,
2013-06-18 10:53:00,62.0,47.0,-100.00,WNW,284,2.0,4.0,59,0.00,,,0.02,261.000000,,2013-06-18 14:53:00,
2013-06-18 11:02:00,62.0,47.0,-100.00,WNW,284,2.0,4.0,59,0.00,,,0.02,261.000000,,2013-06-18 15:02:00,
2013-06-18 11:10:00,59.0,46.0,-100.00,North,356,1.0,4.0,63,0.00,,,0.02,105.000000,,2013-06-18 15:10:00,
2013-06-18 11:33:00,59.0,46.0,-100.00,North,356,1.0,4.0,63,0.00,,,0.02,105.000000,,2013-06-18 15:33:00,
2013-06-18 11:43:00,59.0,46.0,-100.00,North,356,1.0,4.0,63,0.00,,,0.02,105.000000,,2013-06-18 15:43:00,
2013-06-18 11:53:00,59.0,46.0,-100.00,North,356,1.0,4.0,63,0.00,,,0.02,105.000000,,2013-06-18 15:53:00,
2013-06-18 12:02:00,59.0,46.0,-100.00,North,356,1.0,4.0,63,0.00,,,0.02,105.000000,,2013-06-18 16:02:00,
2013-06-18 12:10:00,63.0,50.0,-100.00,East,85,2.0,4.0,62,0.00,,,0.02,274.000000,,2013-06-18 16:10:00,
2013-06-18 12:43:00,63.0,50.0,-100.00,East,85,2.0,4.0,62,0.00,,,0.02,274.000000,,2013-06-18 16:43:00,
2013-06-18 12:53:00,63.0,50.0,-100.00,East,85,2.0,4.0,62,0.00,,,0.02,274.000000,,2013-06-18 16:53:00,
2013-06-18 13:02:00,63.0,50.0,-100.00,East,85,2.0,4.0,62,0.00,,,0.02,274.000000,,2013-06-18 17:02:00,
2013-06-18 13:10:00,67.0,47.0,-100.00,SSW,210,2.0,7.0,49,0.00,,,0.02,473.000000,,2013-06-18 17:10:00,
2013-06-18 13:43:00,67.0,47.0,-100.00,SSW,210,2.0,7.0,49,0.00,,,0.02,473.000000,,2013-06-18 17:43:00,
2013-06-18 13:53:00,67.0,47.0,-100.00,SSW,210,2.0,7.0,49,0.00,,,0.02,473.000000,,2013-06-18 17:53:00,
2013-06-18 14:02:00,67.0,47.0,-100.00,SSW,210,2.0,7.0,49,0.00,,,0.02,473.000000,,2013-06-18 18:02:00,
2013-06-18 14:10:00,70.0,49.0,-100.00,NE,42,2.0,9.0,47,0.00,,,0.02,545.000000,,2013-06-18 18:10:00,
2013-06-18 14:43:00,70.0,49.0,-100.00,NE,42,2.0,9.0,47,0.00,,,0.02,545.000000,,2013-06-18 18:43:00,
2013-06-18 14:53:00,70.0,49.0,-100.00,NE,42,2.0,9.0,47,0.00,,,0.02,545.000000,,2013-06-18 18:53:00,
2013-06-18 15:02:00,70.0,49.0,-100.00,NE,42,2.0,9.0,47,0.00,,,0.02,545.000000,,2013-06-18 19:02:00,
2013-06-18 15:10:00,70.0,47.0,-100.00,SW,233,3.0,6.0,44,0.00,,,0.02,529.000000,,2013-06-18 19:10:00,
2013-06-18 15:43:00,70.0,47.0,-100.00,SW,233,3.0,6.0,44,0.00,,,0.02,529.000000,,2013-06-18 19:43:00,
2013-06-18 15:53:00,70.0,47.0,-100.00,SW,233,3.0,6.0,44,0.00,,,0.02,529.000000,,2013-06-18 19:53:00,
2013-06-18 16:02:00,70.0,47.0,-100.00,SW,233,3.0,6.0,44,0.00,,,0.02,529.000000,,2013-06-18 20:02:00,
2013-06-18 16:10:00,68.0,44.0,-100.00,SSW,205,2.0,6.0,42,0.00,,,0.02,434.000000,,2013-06-18 20:10:00,
2013-06-18 16:43:00,68.0,44.0,-100.00,SSW,205,2.0,6.0,42,0.00,,,0.02,434.000000,,2013-06-18 20:43:00,
2013-06-18 16:53:00,68.0,44.0,-100.00,SSW,205,2.0,6.0,42,0.00,,,0.02,434.000000,,2013-06-18 20:53:00,
2013-06-18 17:02:00,68.0,44.0,-100.00,SSW,205,2.0,6.0,42,0.00,,,0.02,434.000000,,2013-06-18 21:02:00,
2013-06-18 17:10:00,70.0,46.0,-100.00,West,266,2.0,7.0,43,0.00,,,0.00,397.000000,,2013-06-18 21:10:00,
2013-06-18 17:43:00,70.0,46.0,-100.00,West,266,2.0,7.0,43,0.00,,,0.00,397.000000,,2013-06-18 21:43:00,
2013-06-18 17:52:00,70.0,46.0,-100.00,West,266,2.0,7.0,43,0.00,,,0.00,397.000000,,2013-06-18 21:52:00,
2013-06-18 18:02:00,70.0,46.0,-100.00,West,266,2.0,7.0,43,0.00,,,0.00,397.000000,,2013-06-18 22:02:00,
2013-06-18 18:10:00,72.0,48.0,-100.00,NE,42,2.0,4.0,43,0.00,,,0.00,325.000000,,2013-06-18 22:10:00,
2013-06-18 18:43:00,72.0,48.0,-100.00,NE,42,2.0,4.0,43,0.00,,,0.00,325.000000,,2013-06-18 22:43:00,
2013-06-18 18:53:00,72.0,48.0,-100.00,NE,42,2.0,4.0,43,0.00,,,0.00,325.000000,,2013-06-18 22:53:00,
2013-06-18 19:02:00,72.0,48.0,-100.00,NE,42,2.0,4.0,43,0.00,,,0.00,325.000000,,2013-06-18 23:02:00,
2013-06-18 19:10:00,65.0,43.0,-100.00,NE,53,1.0,4.0,45,0.00,,,0.00,133.000000,,2013-06-18 23:10:00,
2013-06-18 19:48:00,65.0,43.0,-100.00,NE,53,1.0,4.0,45,0.00,,,0.00,133.000000,,2013-06-18 23:48:00,
2013-06-18 20:02:00,65.0,43.0,-100.00,NE,53,1.0,4.0,45,0.00,,,0.00,133.000000,,2013-06-19 00:02:00,
2013-06-18 20:10:00,59.0,49.0,-100.00,ENE,78,1.0,2.0,70,0.00,,,0.00,34.000000,,2013-06-19 00:10:00,
2013-06-18 20:43:00,59.0,49.0,-100.00,ENE,78,1.0,2.0,70,0.00,,,0.00,34.000000,,2013-06-19 00:43:00,
2013-06-18 20:53:00,59.0,49.0,-100.00,ENE,78,1.0,2.0,70,0.00,,,0.00,34.000000,,2013-06-19 00:53:00,
2013-06-18 21:02:00,59.0,49.0,-100.00,ENE,78,1.0,2.0,70,0.00,,,0.00,34.000000,,2013-06-19 01:02:00,
2013-06-18 21:10:00,53.0,48.0,-100.00,East,85,1.0,2.0,82,0.00,,,0.00,4.000000,,2013-06-19 01:10:00,
2013-06-18 21:43:00,53.0,48.0,-100.00,East,85,1.0,2.0,82,0.00,,,0.00,4.000000,,2013-06-19 01:43:00,
2013-06-18 21:53:00,53.0,48.0,-100.00,East,85,1.0,2.0,82,0.00,,,0.00,4.000000,,2013-06-19 01:53:00,
2013-06-18 22:02:00,53.0,48.0,-100.00,East,85,1.0,2.0,82,0.00,,,0.00,4.000000,,2013-06-19 02:02:00,
2013-06-18 22:10:00,51.0,47.0,-100.00,ENE,78,2.0,2.0,86,0.00,,,0.00,0.000000,,2013-06-19 02:10:00,
2013-06-18 22:32:00,51.0,47.0,-100.00,ENE,78,2.0,2.0,86,0.00,,,0.00,0.000000,,2013-06-19 02:32:00,
2013-06-18 22:43:00,51.0,47.0,-100.00,ENE,78,2.0,2.0,86,0.00,,,0.00,0.000000,,2013-06-19 02:43:00,
2013-06-18 22:52:00,51.0,47.0,-100.00,ENE,78,2.0,2.0,86,0.00,,,0.00,0.000000,,2013-06-19 02:52:00,
2013-06-18 23:01:00,51.0,47.0,-100.00,ENE,78,2.0,2.0,86,0.00,,,0.00,0.000000,,2013-06-19 03:01:00,
2013-06-18 23:10:00,47.0,45.0,-100.00,ESE,107,1.0,2.0,91,0.00,,,0.00,0.000000,,2013-06-19 03:10:00,
2013-06-18 23:43:00,47.0,45.0,-100.00,ESE,107,1.0,2.0,91,0.00,,,0.00,0.000000,,2013-06-19 03:43:00,
2013-06-18 23:52:00,47.0,45.0,-100.00,ESE,107,1.0,2.0,91,0.00,,,0.00,0.000000,,2013-06-19 03:52:00,